QAK033 MMPS-MMAA

Flight info

Callsign QAK033
Flight time N/A
Altitude 18000
Route PXM4B PXM V1 ANVAN ANVAN1B
Aircraft A320/M-SDE3FGHIRWY/LB1

Departure

Time N/A
Airport Puerto Escondido International Airport (MMPS)

Arrival

Time 2026-04-28 18:43
Airport General Juan N. Álvarez International Airport (MMAA)
Time Latitude Longitude Altitude Speed Heading
2026-04-28 18:32 16.48347 -98.90900 15265 ft 399 kts 291°
2026-04-28 18:32 16.49251 -98.93605 14503 ft 392 kts 291°
2026-04-28 18:32 16.50124 -98.96236 13911 ft 387 kts 291°
2026-04-28 18:32 16.51000 -98.98886 13386 ft 386 kts 291°
2026-04-28 18:33 16.51874 -99.01534 12859 ft 384 kts 291°
2026-04-28 18:33 16.52736 -99.04158 12360 ft 381 kts 290°
2026-04-28 18:33 16.53590 -99.06767 11884 ft 378 kts 290°
2026-04-28 18:33 16.54434 -99.09348 11388 ft 374 kts 290°
2026-04-28 18:34 16.55248 -99.11830 11016 ft 368 kts 290°
2026-04-28 18:34 16.56089 -99.14397 10511 ft 365 kts 290°
2026-04-28 18:34 16.56888 -99.16835 10370 ft 351 kts 290°
2026-04-28 18:34 16.57664 -99.19204 10239 ft 338 kts 290°
2026-04-28 18:35 16.58408 -99.21480 10134 ft 325 kts 290°
2026-04-28 18:35 16.59126 -99.23675 9989 ft 314 kts 290°
2026-04-28 18:35 16.59823 -99.25801 9425 ft 308 kts 290°
2026-04-28 18:35 16.60512 -99.27902 8805 ft 303 kts 289°
2026-04-28 18:36 16.61185 -99.29948 8392 ft 302 kts 289°
2026-04-28 18:36 16.61867 -99.32023 7992 ft 301 kts 289°
2026-04-28 18:36 16.62543 -99.34084 7592 ft 300 kts 289°
2026-04-28 18:36 16.63199 -99.36088 7205 ft 298 kts 289°
2026-04-28 18:37 16.63872 -99.38143 6814 ft 298 kts 289°
2026-04-28 18:37 16.64538 -99.40177 6431 ft 296 kts 289°
2026-04-28 18:37 16.65202 -99.42208 6027 ft 295 kts 289°
2026-04-28 18:37 16.65863 -99.44235 5636 ft 294 kts 289°
2026-04-28 18:38 16.66510 -99.46219 5261 ft 291 kts 289°
2026-04-28 18:38 16.67162 -99.48217 4877 ft 289 kts 289°
2026-04-28 18:38 16.67808 -99.50196 4491 ft 285 kts 289°
2026-04-28 18:38 16.68427 -99.52117 4123 ft 272 kts 289°
2026-04-28 18:39 16.69003 -99.53948 3773 ft 259 kts 288°
2026-04-28 18:39 16.69545 -99.55685 3450 ft 248 kts 288°
2026-04-28 18:39 16.70068 -99.57360 3133 ft 238 kts 288°
2026-04-28 18:39 16.70564 -99.58966 2824 ft 228 kts 288°
2026-04-28 18:40 16.71042 -99.60498 2582 ft 216 kts 287°
2026-04-28 18:40 16.71503 -99.61965 2282 ft 210 kts 287°
2026-04-28 18:40 16.71951 -99.63391 2002 ft 203 kts 285°
2026-04-28 18:40 16.72375 -99.64738 1754 ft 187 kts 285°
2026-04-28 18:41 16.72759 -99.65961 1546 ft 167 kts 284°
2026-04-28 18:41 16.73104 -99.67059 1325 ft 153 kts 285°
2026-04-28 18:41 16.73419 -99.68065 1133 ft 143 kts 285°
2026-04-28 18:41 16.73724 -99.69039 948 ft 140 kts 285°
2026-04-28 18:42 16.74045 -99.70016 743 ft 145 kts 287°
2026-04-28 18:42 16.74411 -99.71013 530 ft 152 kts 285°
2026-04-28 18:42 16.74699 -99.72056 331 ft 148 kts 283°
2026-04-28 18:42 16.74985 -99.73074 132 ft 144 kts 285°
2026-04-28 18:43 16.75282 -99.74023 23 ft 125 kts 288°
2026-04-28 18:43 16.75506 -99.74728 23 ft 78 kts 289°
2026-04-28 18:43 16.75604 -99.75004 20 ft 13 kts 318°
2026-04-28 18:43 16.75681 -99.75033 20 ft 11 kts 338°
2026-04-28 18:44 16.75744 -99.75064 21 ft 9 kts 334°
2026-04-28 18:44 16.75833 -99.75132 22 ft 7 kts 286°
2026-04-28 18:44 16.75847 -99.75180 23 ft 10 kts 288°
2026-04-28 18:45 16.75882 -99.75289 21 ft 21 kts 288°
2026-04-28 18:45 16.75912 -99.75374 22 ft 5 kts 310°
2026-04-28 18:45 16.75941 -99.75392 21 ft 4 kts 332°
2026-04-28 18:45 16.75965 -99.75405 21 ft 4 kts 332°
2026-04-28 18:46 16.76001 -99.75437 22 ft 11 kts 299°
2026-04-28 18:46 16.76031 -99.75534 21 ft 15 kts 287°
2026-04-28 18:46 16.76048 -99.75580 21 ft 3 kts 314°
2026-04-28 18:46 16.76081 -99.75578 23 ft 8 kts 18°
2026-04-28 18:47 16.76131 -99.75562 21 ft 5 kts 17°
2026-04-28 18:47 16.76137 -99.75560 21 ft 1 kts 17°
2026-04-28 18:47 16.76143 -99.75559 21 ft 0 kts 17°